DLH9LF EDDF-EDDM

Flight info

Callsign DLH9LF
Flight time 0h 37m
Altitude 21000
Route CINDY7S CINDY Z74 HAREM T104 ROKIL ROKIL1B
Aircraft A320/M-SDE3FGHIRWY/LB1

Departure

Time 2026-05-07 17:10
Airport Frankfurt Main Airport (EDDF)

Arrival

Time 2026-05-07 17:47
Airport Munich Airport (EDDM)
Time Latitude Longitude Altitude Speed Heading
2026-05-07 16:37 50.04534 8.56583 355 ft 0 kts 115°
2026-05-07 16:57 50.04539 8.56566 356 ft 2 kts 117°
2026-05-07 16:57 50.04546 8.56544 354 ft 2 kts 121°
2026-05-07 16:58 50.04555 8.56523 356 ft 2 kts 127°
2026-05-07 16:58 50.04565 8.56503 353 ft 2 kts 136°
2026-05-07 16:58 50.04578 8.56486 356 ft 2 kts 154°
2026-05-07 16:58 50.04593 8.56478 353 ft 2 kts 182°
2026-05-07 16:59 50.04609 8.56482 354 ft 2 kts 202°
2026-05-07 16:59 50.04614 8.56485 353 ft 0 kts 204°
2026-05-07 17:02 50.04613 8.56484 345 ft 2 kts 204°
2026-05-07 17:02 50.04593 8.56470 357 ft 3 kts 204°
2026-05-07 17:02 50.04578 8.56460 345 ft 3 kts 205°
2026-05-07 17:02 50.04527 8.56410 353 ft 14 kts 230°
2026-05-07 17:03 50.04484 8.56247 355 ft 17 kts 250°
2026-05-07 17:03 50.04445 8.56085 345 ft 11 kts 248°
2026-05-07 17:03 50.04386 8.56032 345 ft 11 kts 168°
2026-05-07 17:03 50.04314 8.56072 345 ft 11 kts 166°
2026-05-07 17:04 50.04254 8.56002 351 ft 12 kts 249°
2026-05-07 17:04 50.04222 8.55866 352 ft 16 kts 250°
2026-05-07 17:04 50.04177 8.55682 353 ft 21 kts 250°
2026-05-07 17:04 50.04123 8.55455 353 ft 23 kts 249°
2026-05-07 17:05 50.04065 8.55212 352 ft 25 kts 249°
2026-05-07 17:05 50.04004 8.54956 352 ft 26 kts 250°
2026-05-07 17:05 50.03939 8.54688 350 ft 27 kts 249°
2026-05-07 17:05 50.03882 8.54448 346 ft 16 kts 250°
2026-05-07 17:06 50.03843 8.54333 347 ft 11 kts 234°
2026-05-07 17:06 50.03802 8.54229 354 ft 11 kts 245°
2026-05-07 17:06 50.03776 8.54120 348 ft 12 kts 249°
2026-05-07 17:06 50.03726 8.53915 348 ft 24 kts 250°
2026-05-07 17:07 50.03668 8.53673 349 ft 25 kts 249°
2026-05-07 17:07 50.03604 8.53418 353 ft 25 kts 249°
2026-05-07 17:07 50.03544 8.53164 354 ft 25 kts 249°
2026-05-07 17:07 50.03482 8.52911 345 ft 25 kts 249°
2026-05-07 17:08 50.03432 8.52724 353 ft 14 kts 247°
2026-05-07 17:08 50.03402 8.52624 345 ft 9 kts 233°
2026-05-07 17:08 50.03355 8.52591 345 ft 7 kts 179°
2026-05-07 17:08 50.03322 8.52594 349 ft 0 kts 179°
2026-05-07 17:09 50.03274 8.52596 353 ft 31 kts 179°
2026-05-07 17:09 50.02794 8.52599 355 ft 103 kts 180°
2026-05-07 17:10 50.01883 8.52609 347 ft 156 kts 180°
2026-05-07 17:10 50.00745 8.52631 845 ft 162 kts 179°
2026-05-07 17:10 49.99613 8.52645 1559 ft 164 kts 179°
2026-05-07 17:10 49.98401 8.52649 2023 ft 186 kts 179°
2026-05-07 17:11 49.97051 8.52929 2471 ft 209 kts 155°
2026-05-07 17:11 49.95921 8.54480 2841 ft 232 kts 119°
2026-05-07 17:11 49.95148 8.56723 3618 ft 234 kts 117°
2026-05-07 17:11 49.94390 8.58940 4569 ft 235 kts 117°
2026-05-07 17:12 49.93561 8.61269 5002 ft 257 kts 119°
2026-05-07 17:12 49.92655 8.63794 5481 ft 278 kts 118°
2026-05-07 17:12 49.91713 8.66428 6404 ft 279 kts 119°
2026-05-07 17:12 49.90752 8.69068 7244 ft 283 kts 120°
2026-05-07 17:13 49.89777 8.71752 8103 ft 287 kts 119°
2026-05-07 17:13 49.88792 8.74465 8955 ft 291 kts 119°
2026-05-07 17:13 49.87794 8.77222 9803 ft 295 kts 119°
2026-05-07 17:13 49.86781 8.80021 10480 ft 305 kts 119°
2026-05-07 17:14 49.85706 8.82995 10753 ft 327 kts 120°
2026-05-07 17:14 49.84560 8.86170 11093 ft 345 kts 120°
2026-05-07 17:14 49.83374 8.89458 11345 ft 352 kts 120°
2026-05-07 17:14 49.82165 8.92815 11867 ft 358 kts 120°
2026-05-07 17:15 49.80953 8.96185 12787 ft 359 kts 120°
2026-05-07 17:15 49.79723 8.99580 13475 ft 364 kts 120°
2026-05-07 17:15 49.78482 9.02973 14159 ft 369 kts 120°
2026-05-07 17:15 49.77209 9.06444 14808 ft 373 kts 119°
2026-05-07 17:16 49.76125 9.10062 15398 ft 378 kts 109°
2026-05-07 17:16 49.75408 9.14049 16016 ft 382 kts 105°
2026-05-07 17:16 49.74480 9.17922 16620 ft 386 kts 116°
2026-05-07 17:16 49.73095 9.21486 17231 ft 389 kts 128°
2026-05-07 17:17 49.71346 9.24690 17845 ft 392 kts 133°
2026-05-07 17:17 49.69541 9.27862 18454 ft 395 kts 133°
2026-05-07 17:17 49.67715 9.31070 19000 ft 399 kts 133°
2026-05-07 17:17 49.65878 9.34298 19557 ft 401 kts 132°
2026-05-07 17:18 49.64030 9.37547 20122 ft 404 kts 132°
2026-05-07 17:18 49.62173 9.40821 20691 ft 407 kts 132°
2026-05-07 17:18 49.60300 9.44120 21250 ft 409 kts 132°
2026-05-07 17:18 49.58419 9.47432 21800 ft 412 kts 132°
2026-05-07 17:19 49.56519 9.50775 22291 ft 416 kts 132°
2026-05-07 17:19 49.54627 9.54101 22789 ft 419 kts 133°
2026-05-07 17:19 49.52699 9.57483 23021 ft 421 kts 133°
2026-05-07 17:19 49.50757 9.60882 23059 ft 424 kts 133°
2026-05-07 17:20 49.48807 9.64284 23054 ft 425 kts 133°
2026-05-07 17:20 49.46851 9.67694 23055 ft 425 kts 133°
2026-05-07 17:20 49.44895 9.71103 23056 ft 425 kts 133°
2026-05-07 17:20 49.42939 9.74502 23057 ft 425 kts 133°
2026-05-07 17:21 49.40980 9.77907 23056 ft 425 kts 133°
2026-05-07 17:21 49.39025 9.81306 23057 ft 425 kts 133°
2026-05-07 17:21 49.37090 9.84665 23057 ft 425 kts 133°
2026-05-07 17:21 49.35127 9.88058 23056 ft 426 kts 133°
2026-05-07 17:22 49.33159 9.91450 23054 ft 426 kts 133°
2026-05-07 17:22 49.31187 9.94846 23045 ft 426 kts 133°
2026-05-07 17:22 49.29217 9.98242 23040 ft 427 kts 133°
2026-05-07 17:22 49.27240 10.01642 23039 ft 427 kts 133°
2026-05-07 17:23 49.25265 10.05033 23038 ft 427 kts 133°
2026-05-07 17:23 49.23282 10.08430 23039 ft 428 kts 134°
2026-05-07 17:23 49.21299 10.11824 23040 ft 428 kts 134°
2026-05-07 17:23 49.19315 10.15218 23052 ft 428 kts 134°
2026-05-07 17:24 49.17331 10.18608 23057 ft 428 kts 134°
2026-05-07 17:24 49.15343 10.22002 23050 ft 428 kts 133°
2026-05-07 17:24 49.13353 10.25380 23050 ft 428 kts 134°
2026-05-07 17:24 49.11327 10.28720 23050 ft 429 kts 135°
2026-05-07 17:25 49.09276 10.32018 23071 ft 429 kts 135°
2026-05-07 17:25 49.07210 10.35301 23072 ft 429 kts 135°
2026-05-07 17:25 49.05142 10.38582 23053 ft 429 kts 136°
2026-05-07 17:25 49.03075 10.41865 23056 ft 429 kts 136°
2026-05-07 17:26 49.01698 10.44054 23066 ft 430 kts 136°
2026-05-07 17:26 48.99634 10.47347 23045 ft 429 kts 135°
2026-05-07 17:26 48.97598 10.50595 22763 ft 421 kts 136°
2026-05-07 17:26 48.95579 10.53814 22490 ft 418 kts 136°
2026-05-07 17:27 48.93577 10.57005 22215 ft 416 kts 136°
2026-05-07 17:27 48.91579 10.60188 21952 ft 415 kts 135°
2026-05-07 17:27 48.89585 10.63360 21692 ft 414 kts 135°
2026-05-07 17:27 48.87596 10.66517 21425 ft 412 kts 135°
2026-05-07 17:28 48.85614 10.69660 21159 ft 411 kts 135°
2026-05-07 17:28 48.83638 10.72783 20896 ft 409 kts 136°
2026-05-07 17:28 48.81670 10.75890 20640 ft 408 kts 136°
2026-05-07 17:28 48.79728 10.78956 20307 ft 402 kts 136°
2026-05-07 17:29 48.77791 10.82008 19848 ft 399 kts 136°
2026-05-07 17:29 48.75865 10.85027 19359 ft 396 kts 136°
2026-05-07 17:29 48.73953 10.88009 18869 ft 393 kts 136°
2026-05-07 17:29 48.72051 10.90973 18377 ft 392 kts 136°
2026-05-07 17:30 48.70157 10.93928 17846 ft 390 kts 136°
2026-05-07 17:30 48.68278 10.96865 17337 ft 387 kts 136°
2026-05-07 17:30 48.66413 10.99777 16834 ft 384 kts 136°
2026-05-07 17:30 48.64578 11.02633 16342 ft 382 kts 136°
2026-05-07 17:31 48.62728 11.05505 15846 ft 380 kts 136°
2026-05-07 17:31 48.60895 11.08351 15492 ft 374 kts 136°
2026-05-07 17:31 48.59098 11.11137 15192 ft 367 kts 137°
2026-05-07 17:31 48.57193 11.13699 14929 ft 369 kts 142°
2026-05-07 17:32 48.55220 11.16176 14684 ft 368 kts 143°
2026-05-07 17:32 48.53238 11.18614 14453 ft 367 kts 143°
2026-05-07 17:32 48.51258 11.21023 14211 ft 365 kts 144°
2026-05-07 17:32 48.49286 11.23418 13971 ft 363 kts 144°
2026-05-07 17:33 48.47325 11.25806 13701 ft 362 kts 144°
2026-05-07 17:33 48.45469 11.28370 13428 ft 363 kts 134°
2026-05-07 17:33 48.43965 11.31424 13162 ft 364 kts 122°
2026-05-07 17:33 48.42889 11.34861 12900 ft 365 kts 111°
2026-05-07 17:34 48.42273 11.38572 12639 ft 366 kts 99°
2026-05-07 17:34 48.42140 11.42390 12331 ft 365 kts 87°
2026-05-07 17:34 48.42412 11.46178 12025 ft 364 kts 83°
2026-05-07 17:34 48.42720 11.49947 11720 ft 362 kts 83°
2026-05-07 17:35 48.43019 11.53708 11417 ft 361 kts 83°
2026-05-07 17:35 48.43314 11.57453 11129 ft 359 kts 83°
2026-05-07 17:35 48.43606 11.61186 11030 ft 358 kts 83°
2026-05-07 17:35 48.43896 11.64923 11053 ft 359 kts 83°
2026-05-07 17:36 48.44186 11.68653 11055 ft 359 kts 83°
2026-05-07 17:36 48.44476 11.72392 10837 ft 359 kts 83°
2026-05-07 17:36 48.44766 11.76124 10469 ft 357 kts 83°
2026-05-07 17:36 48.45054 11.79826 10104 ft 355 kts 83°
2026-05-07 17:37 48.45335 11.83497 9718 ft 348 kts 83°
2026-05-07 17:37 48.45601 11.87029 9314 ft 330 kts 83°
2026-05-07 17:37 48.45852 11.90379 8919 ft 314 kts 83°
2026-05-07 17:37 48.46092 11.93581 8515 ft 303 kts 83°
2026-05-07 17:38 48.46327 11.96729 8059 ft 301 kts 83°
2026-05-07 17:38 48.46556 11.99797 7557 ft 297 kts 83°
2026-05-07 17:38 48.46787 12.02872 7059 ft 294 kts 83°
2026-05-07 17:38 48.47015 12.05924 6571 ft 293 kts 83°
2026-05-07 17:39 48.47241 12.08956 6148 ft 290 kts 83°
2026-05-07 17:39 48.47464 12.11964 5757 ft 287 kts 83°
2026-05-07 17:39 48.47685 12.14945 5369 ft 284 kts 83°
2026-05-07 17:39 48.47862 12.17901 4985 ft 283 kts 91°
2026-05-07 17:40 48.47389 12.20724 4670 ft 279 kts 120°
2026-05-07 17:40 48.46122 12.22866 4407 ft 270 kts 148°
2026-05-07 17:40 48.44420 12.23860 4154 ft 258 kts 171°
2026-05-07 17:40 48.42685 12.24126 3999 ft 243 kts 189°
2026-05-07 17:41 48.41140 12.23342 3891 ft 229 kts 216°
2026-05-07 17:41 48.40018 12.21680 3981 ft 227 kts 240°
2026-05-07 17:41 48.39469 12.19488 3991 ft 224 kts 263°
2026-05-07 17:41 48.39293 12.17155 4001 ft 226 kts 265°
2026-05-07 17:42 48.39128 12.14820 3996 ft 220 kts 266°
2026-05-07 17:42 48.38966 12.12616 3988 ft 204 kts 265°
2026-05-07 17:42 48.38816 12.10569 3992 ft 192 kts 265°
2026-05-07 17:42 48.38671 12.08607 4011 ft 186 kts 266°
2026-05-07 17:43 48.38532 12.06717 4026 ft 179 kts 265°
2026-05-07 17:43 48.38396 12.04879 4004 ft 175 kts 266°
2026-05-07 17:43 48.38262 12.03070 3999 ft 173 kts 266°
2026-05-07 17:43 48.38128 12.01269 3933 ft 174 kts 265°
2026-05-07 17:44 48.37994 11.99466 3749 ft 171 kts 265°
2026-05-07 17:44 48.37866 11.97758 3541 ft 159 kts 265°
2026-05-07 17:44 48.37742 11.96106 3361 ft 165 kts 266°
2026-05-07 17:44 48.37621 11.94488 3152 ft 151 kts 266°
2026-05-07 17:45 48.37504 11.92942 2944 ft 144 kts 265°
2026-05-07 17:45 48.37393 11.91455 2746 ft 143 kts 265°
2026-05-07 17:45 48.37284 11.89972 2552 ft 143 kts 265°
2026-05-07 17:45 48.37180 11.88506 2321 ft 143 kts 265°
2026-05-07 17:46 48.37053 11.87014 2129 ft 144 kts 266°
2026-05-07 17:46 48.36936 11.85515 1948 ft 145 kts 268°
2026-05-07 17:46 48.36826 11.84018 1777 ft 144 kts 268°
2026-05-07 17:46 48.36710 11.82536 1580 ft 142 kts 267°
2026-05-07 17:47 48.36603 11.81076 1470 ft 135 kts 266°
2026-05-07 17:47 48.36528 11.79895 1463 ft 89 kts 263°
2026-05-07 17:47 48.36472 11.79212 1469 ft 46 kts 264°
2026-05-07 17:47 48.36418 11.78919 1461 ft 20 kts 236°
2026-05-07 17:48 48.36328 11.78757 1465 ft 19 kts 233°
2026-05-07 17:48 48.36265 11.78626 1461 ft 10 kts 233°
2026-05-07 17:48 48.36226 11.78550 1461 ft 0 kts 232°
2026-05-07 17:49 48.36224 11.78548 1461 ft 2 kts 232°
2026-05-07 17:49 48.36176 11.78449 1466 ft 16 kts 234°
2026-05-07 17:49 48.36137 11.78373 1462 ft 6 kts 224°
2026-05-07 17:49 48.36124 11.78303 1463 ft 12 kts 263°
2026-05-07 17:50 48.36114 11.78176 1467 ft 12 kts 262°
2026-05-07 17:50 48.36105 11.78064 1457 ft 10 kts 263°
2026-05-07 17:50 48.36098 11.77966 1464 ft 9 kts 264°
2026-05-07 17:50 48.36092 11.77883 1463 ft 7 kts 263°
2026-05-07 17:51 48.36087 11.77819 1467 ft 7 kts 263°
2026-05-07 17:51 48.36067 11.77694 1464 ft 13 kts 236°
2026-05-07 17:51 48.35993 11.77677 1458 ft 11 kts 154°
2026-05-07 17:51 48.35972 11.77766 1467 ft 9 kts 85°
2026-05-07 17:52 48.35982 11.77900 1464 ft 18 kts 83°
2026-05-07 17:52 48.36001 11.78130 1467 ft 25 kts 83°
2026-05-07 17:52 48.36020 11.78396 1459 ft 26 kts 84°
2026-05-07 17:52 48.36042 11.78674 1467 ft 27 kts 84°
2026-05-07 17:53 48.36064 11.78961 1459 ft 26 kts 83°
2026-05-07 17:53 48.36082 11.79217 1468 ft 16 kts 84°
2026-05-07 17:53 48.36067 11.79316 1457 ft 8 kts 141°
2026-05-07 17:53 48.36054 11.79322 1467 ft 0 kts 167°
2026-05-07 17:55 48.36026 11.79329 1458 ft 9 kts 172°
2026-05-07 17:55 48.35953 11.79341 1465 ft 10 kts 172°
2026-05-07 17:55 48.35889 11.79376 1462 ft 10 kts 161°
2026-05-07 17:55 48.35811 11.79392 1462 ft 12 kts 173°
2026-05-07 17:56 48.35735 11.79405 1467 ft 10 kts 173°
2026-05-07 17:56 48.35660 11.79418 1459 ft 6 kts 174°
2026-05-07 17:56 48.35636 11.79394 1463 ft 4 kts 252°
2026-05-07 17:56 48.35636 11.79360 1465 ft 3 kts 274°
2026-05-07 17:57 48.35639 11.79318 1462 ft 8 kts 271°
2026-05-07 17:57 48.35636 11.79275 1463 ft 3 kts 263°
2026-05-07 17:57 48.35635 11.79266 1464 ft 0 kts 263°